Location: Unspecified
(44.4377°N, 88.0525°W)
Time: 04:36:35
(UTC-06:00)

CZ-3 Stage 3 - Pass Details

Date: 01 February 2021
Orbit: 398 x 34787 km, 30.8° (Epoch: 27 February)

Event Time Altitude Azimuth Distance (km) Brightness Sun altitude
Rises 20:19:54 0° 275° (W) 8,059 8.7 -35.4°
Reaches altitude 10° 20:23:28 10° 272° (W) 8,121 8.4 -36.0°
Maximum altitude 21:24:08 58° 216° (SW) 18,625 9.2 -46.2°
Drops below altitude 10° 03:48:10 10° 232° (SW) 31,051 10.1 -36.0°
Sets 04:45:47 0° 228° (SW) 23,987 9.7 -25.8°
